[[{"header":{"parameterUnit":"m.s-1","parameterCategory":1,"la1":30.2991,"la2":30.254,"lo1":-89.0895,"lo2":-89.0444,"dy":0.0017,"dx":0.0017,"nx":28,"ny":28,"refTime":"2025-04-14T03:00:00:Z","depth":0,"parameterNumber":2,"parameterNumberName":"U-component_of_WINDS"},"data":[0,0,0,0,0,0,0,0,0,0,0,0,0,0,0,0,0,0,0,0,0,0,0,0,0,0,0,0,0,0,0,0,0,0,0,0,0,0,0,0,0,0,0,0,0,0,0,0,0,0,0,0,0,0,0,0,0,0,3.6517,3.6516,0,3.6501,3.6501,3.6501,3.6368,3.6364,3.6361,3.6358,3.6346,3.6348,3.6351,0,0,0,0,0,0,0,0,0,0,0,0,0,3.6433,3.6435,3.6517,3.6516,3.6516,3.6501,3.6501,3.6501,3.6368,3.6364,3.636,3.6356,3.6345,3.6348,3.6351,0,0,0,0,0,0,0,0,0,0,0,0,0,3.6449,3.6436,3.6517,3.6448,3.6442,3.6501,3.6501,3.6501,3.6369,3.6364,3.6359,3.6354,3.6344,3.6348,3.6352,3.6477,0,0,3.6364,3.6366,0,0,0,0,0,0,0,0,3.6448,3.6452,3.6458,3.6453,3.6446,3.6431,3.6467,3.6493,3.637,3.6397,3.6358,3.6352,3.6378,3.6379,3.6387,3.6476,3.6476,3.6365,3.6367,3.6369,3.637,0,0,0,0,0,0,0,3.6447,3.6452,3.6511,3.6459,3.6451,3.6419,3.6416,3.6471,3.6416,3.6394,3.6384,3.6384,3.6374,3.6384,3.6386,3.6475,3.6365,3.6368,3.6371,3.6372,3.6662,3.6667,0,0,0,0,0,0,3.6455,3.6452,3.6511,3.651,3.6435,3.6424,3.6421,3.6441,3.6415,3.6406,3.6388,3.6378,3.6379,3.6381,3.6385,3.6526,3.6369,3.6373,3.6375,3.6657,3.6663,3.6669,0,0,0,0,0,0,3.6454,3.6462,3.6512,3.6478,3.6482,3.6431,3.6455,3.6443,3.6453,3.641,3.64,3.6408,3.6375,3.6379,3.6454,3.6524,3.6375,3.6378,3.6651,3.6659,3.6666,3.6812,0,0,0,0,0,0,3.6452,3.6462,3.6509,3.648,3.6484,3.658,3.6459,3.6447,3.646,3.6446,3.6426,3.6418,3.6372,3.6448,3.6458,3.6527,3.6382,3.6644,3.6654,3.6663,3.6801,3.6824,3.6844,0,0,0,0,0,3.645,3.6552,3.6512,3.652,3.6542,3.6585,3.6587,3.653,3.6466,3.6512,3.6485,3.6419,3.6516,3.6457,3.6467,3.6538,3.6639,3.6651,3.6663,3.6791,3.6819,3.6843,0,0,0,0,0,0,3.6592,3.6547,3.6502,3.6598,3.6596,3.6562,3.6619,3.6563,3.658,3.6566,3.6496,3.6493,3.6577,3.6566,3.6501,3.6656,3.6566,3.658,3.666,3.6687,3.6708,3.6707,3.6385,0,0,0,0,0,3.6635,3.6673,3.6632,3.6721,3.6722,3.6671,3.6688,3.6644,3.6639,3.6638,3.6616,3.6615,3.6644,3.6665,3.6691,3.6799,3.6791,3.6853,3.6875,3.6893,3.6905,3.6958,3.6984,3.6707,3.6707,3.6707,0,0,3.6723,3.6703,3.6732,3.6749,3.6742,3.6782,3.6671,3.672,3.6749,3.6646,3.6713,3.6697,3.6691,3.6782,3.6821,3.6775,3.698,3.6908,3.6922,3.6924,3.6973,3.6999,3.7022,3.6715,3.6714,3.6712,0,0,3.6904,3.6894,3.6965,3.696,3.695,3.6915,3.6932,3.6906,3.6891,3.6957,3.688,3.6915,3.6968,3.6965,3.6971,3.715,3.7089,3.7161,3.7272,3.7325,3.7346,3.7365,3.7426,3.7448,3.7173,3.7174,3.7174,0,3.7015,3.7072,3.7009,3.7061,3.707,3.6977,3.7047,3.7046,3.7046,3.7054,3.7003,3.7065,3.7055,3.7143,3.7186,3.7195,3.7211,3.7161,3.7348,3.7367,3.7383,3.744,3.7463,3.7182,3.7181,3.718,3.718,0,3.7208,3.7248,3.7307,3.7306,3.7322,3.7384,3.733,3.7354,3.7309,3.728,3.7347,3.7332,3.735,3.7369,3.7327,3.745,3.7421,3.7361,3.7268,3.7419,3.7471,3.7493,3.7194,3.7191,3.7189,3.7187,0,0,3.7477,3.7438,3.7461,3.7458,3.7439,3.747,3.7527,3.7544,3.7564,3.7568,3.7612,3.7659,3.7601,3.7608,3.7565,3.7612,3.775,3.7545,3.7544,3.7581,3.7882,3.7925,3.7951,3.7711,3.7715,3.7718,3.7881,0,3.7647,3.774,3.7684,3.7786,3.7821,3.7733,3.7782,3.7777,3.7751,3.7778,3.775,3.7783,3.7707,3.7709,3.7752,3.7724,3.7809,3.7712,3.775,3.7753,3.7751,3.7979,3.8025,3.8179,3.7901,3.7905,3.7907,0,3.7858,3.7867,3.7972,3.7943,3.7956,3.8001,3.801,3.8038,3.8029,3.8007,3.8014,3.7959,3.8013,3.7924,3.7996,3.7931,3.7944,3.7933,3.7937,3.7936,3.7837,3.798,3.8227,3.8249,3.7939,3.7937,3.7934,0,3.8039,3.8078,3.8144,3.8145,3.8115,3.8148,3.8138,3.8124,3.8137,3.8146,3.8153,3.817,3.8178,3.8192,3.8142,3.8083,3.822,3.8128,3.8202,3.8203,3.8232,3.8231,3.8482,3.8247,3.8247,3.8246,3.8246,0,3.8233,3.83,3.8224,3.8265,3.8336,3.8272,3.8345,3.8325,3.8314,3.8349,3.8276,3.8311,3.8245,3.8273,3.8235,3.8299,3.8305,3.8287,3.8276,3.8292,3.8293,3.8296,3.8283,3.8252,3.8251,3.825,3.8249,0,3.8446,3.8399,3.8464,3.843,3.8422,3.8476,3.8447,3.8483,3.8452,3.8497,3.8504,3.8457,3.8486,3.8438,3.8463,3.8437,3.8525,3.8499,3.8527,3.8518,3.8593,3.8586,3.8852,3.8883,3.8633,3.8635,3.8637,0,3.8571,3.8619,3.8589,3.8606,3.8598,3.8628,3.8639,3.8579,3.8594,3.8587,3.8624,3.8646,3.8661,3.8712,3.868,3.8698,3.8669,3.8762,3.8671,3.8685,3.8666,3.8662,3.8665,3.8779,3.8782,3.8785,3.8787,0,3.8796,3.877,3.8788,3.8799,3.8814,3.882,3.882,3.8839,3.8775,3.8796,3.8823,3.8835,3.8858,3.8881,3.8891,3.888,3.8823,3.8816,3.8833,3.8848,3.886,3.8851,3.8573,3.8809,3.8807,3.8805,3.8804,3.8803,3.8966,3.9003,3.8987,3.9009,3.9003,3.9005,3.9035,3.9008,3.9029,3.9041,3.9006,3.9041,3.903,3.9037,3.9033,3.906,3.9019,3.9046,3.9052,3.9058,3.9068,3.8859,3.9063,3.9062,3.9061,3.9061,3.906,0,3.9184,3.9168,3.919,3.9191,3.9209,3.9152,3.915,3.9168,3.92,3.9194,3.9209,3.924,3.9262,3.9231,3.9247,3.9275,3.9249,3.9281,3.9277,3.9275,3.9106,3.9087,3.9302,3.9302,3.9302,3.9302,3.9302,3.9302,3.9299,3.9358,3.933,3.9385,3.9369,3.9401,3.9404,3.9405,3.94,3.9437,3.9453,3.9433,3.9417,3.9431,3.9448,3.9439,3.9447,3.9488,3.9469,3.9311,3.9287,3.9264,3.9246,3.9491,3.9491,3.9634,3.9636,3.9637]},{"header":{"parameterUnit":"m.s-1","parameterCategory":1,"la1":30.2991,"la2":30.254,"lo1":-89.0895,"lo2":-89.0444,"dy":0.0017,"dx":0.0017,"nx":28,"ny":28,"refTime":"2025-04-14T03:00:00:Z","depth":0,"parameterNumber":3,"parameterNumberName":"V-component_of_WINDS"},"data":[0,0,0,0,0,0,0,0,0,0,0,0,0,0,0,0,0,0,0,0,0,0,0,0,0,0,0,0,0,0,0,0,0,0,0,0,0,0,0,0,0,0,0,0,0,0,0,0,0,0,0,0,0,0,0,0,0,0,5.3714,5.3715,0,5.3791,5.3792,5.3793,5.3753,5.3751,5.3749,5.3747,5.382,5.3824,5.3828,0,0,0,0,0,0,0,0,0,0,0,0,0,5.3526,5.353,5.3714,5.3715,5.3716,5.3791,5.3792,5.3793,5.3753,5.3751,5.3748,5.3746,5.3819,5.3823,5.3828,0,0,0,0,0,0,0,0,0,0,0,0,0,5.3606,5.3531,5.3714,5.3706,5.3706,5.3791,5.3792,5.3794,5.3754,5.3751,5.3748,5.3745,5.3817,5.3823,5.3829,5.3925,0,0,5.3846,5.3849,0,0,0,0,0,0,0,0,5.3601,5.3613,5.3706,5.3706,5.3706,5.376,5.3753,5.3838,5.3755,5.3735,5.3747,5.3743,5.3802,5.3809,5.383,5.3929,5.3932,5.3847,5.385,5.3853,5.3854,0,0,0,0,0,0,0,5.3596,5.3609,5.3745,5.3707,5.3708,5.3695,5.3703,5.3768,5.3785,5.3737,5.3734,5.3744,5.3802,5.3824,5.3831,5.3933,5.3847,5.3852,5.3855,5.3858,5.4112,5.4115,0,0,0,0,0,0,5.3591,5.3605,5.3742,5.3747,5.3645,5.3701,5.371,5.3745,5.3784,5.3787,5.3747,5.3742,5.3816,5.3825,5.3834,5.3947,5.3853,5.3858,5.3861,5.4108,5.4112,5.4116,0,0,0,0,0,0,5.3588,5.3604,5.3739,5.3675,5.3691,5.3708,5.3748,5.3749,5.3771,5.3791,5.3793,5.3767,5.3814,5.3826,5.3902,5.3949,5.3861,5.3866,5.4104,5.411,5.4114,5.4176,0,0,0,0,0,0,5.3582,5.3603,5.3642,5.3676,5.3695,5.3809,5.3751,5.3752,5.3782,5.3777,5.3811,5.3814,5.3812,5.3894,5.3908,5.3955,5.387,5.41,5.4107,5.4112,5.417,5.4182,5.4193,0,0,0,0,0,5.3576,5.3656,5.3644,5.3661,5.3744,5.3812,5.3822,5.382,5.3786,5.3824,5.3836,5.3813,5.3942,5.3902,5.3918,5.3967,5.4097,5.4105,5.4112,5.4164,5.418,5.4193,0,0,0,0,0,0,5.3624,5.366,5.3647,5.3741,5.3774,5.3805,5.3852,5.3837,5.3879,5.3872,5.3866,5.3874,5.3953,5.3968,5.3923,5.4061,5.4014,5.4025,5.4048,5.4063,5.4075,5.4068,5.3875,0,0,0,0,0,5.3646,5.3701,5.3728,5.3808,5.3825,5.3836,5.3866,5.3861,5.3894,5.3907,5.3925,5.3956,5.4003,5.4034,5.4079,5.4172,5.4177,5.4214,5.4225,5.4235,5.4243,5.429,5.4306,5.414,5.414,5.414,0,0,5.3692,5.3718,5.3752,5.3818,5.3843,5.3896,5.3848,5.3907,5.3946,5.3915,5.3989,5.4003,5.4037,5.4122,5.416,5.4137,5.4291,5.4244,5.4252,5.4255,5.43,5.4315,5.4329,5.4145,5.4144,5.4143,0,0,5.3801,5.3828,5.3896,5.3922,5.396,5.3967,5.3983,5.4017,5.4025,5.4099,5.4077,5.4122,5.4204,5.4228,5.4251,5.4368,5.4347,5.4383,5.4443,5.4489,5.4502,5.4513,5.4552,5.4566,5.4392,5.4392,5.4392,0,5.3852,5.3934,5.3932,5.3993,5.4021,5.3998,5.4065,5.409,5.414,5.4159,5.4133,5.4234,5.4255,5.4344,5.4372,5.4393,5.4409,5.4378,5.4501,5.4512,5.4523,5.4559,5.4574,5.4396,5.4396,5.4395,5.4395,0,5.3992,5.4049,5.4099,5.415,5.4184,5.4248,5.4254,5.4288,5.428,5.4289,5.4363,5.4388,5.4436,5.4457,5.445,5.4544,5.4528,5.4502,5.4453,5.4542,5.4577,5.4591,5.4402,5.44,5.4399,5.4398,0,0,5.4134,5.4183,5.4201,5.4222,5.4262,5.4305,5.4366,5.4415,5.4443,5.4478,5.4527,5.4597,5.4572,5.4598,5.4594,5.4635,5.4722,5.4603,5.4603,5.4621,5.4823,5.484,5.4857,5.4709,5.4712,5.4714,5.4819,0,5.4244,5.4353,5.4353,5.4453,5.4503,5.4481,5.4533,5.4562,5.4572,5.4614,5.4623,5.4672,5.4637,5.4653,5.4692,5.4703,5.4761,5.4696,5.4751,5.4753,5.4741,5.4875,5.4894,5.4992,5.4832,5.4835,5.4836,0,5.4387,5.4428,5.4532,5.4563,5.4584,5.4632,5.4675,5.4717,5.4748,5.4751,5.478,5.4769,5.4828,5.478,5.486,5.4815,5.4838,5.4846,5.485,5.4853,5.4799,5.4879,5.5024,5.5037,5.4858,5.4856,5.4855,0,5.4476,5.4557,5.4629,5.4649,5.4687,5.4721,5.4738,5.4766,5.4794,5.4831,5.4849,5.4892,5.4915,5.4948,5.4947,5.4913,5.5027,5.4979,5.5028,5.5028,5.5052,5.505,5.5199,5.5071,5.5071,5.5071,5.507,0,5.4597,5.4661,5.467,5.4714,5.4784,5.4783,5.4851,5.4865,5.489,5.4934,5.4918,5.496,5.4958,5.4999,5.4999,5.5063,5.5074,5.5077,5.5075,5.5077,5.5076,5.509,5.5082,5.5074,5.5074,5.5073,5.5072,0,5.4708,5.4717,5.4793,5.4823,5.4832,5.4882,5.4907,5.4947,5.4955,5.5011,5.5024,5.5036,5.5083,5.5087,5.5142,5.5141,5.5218,5.5211,5.5208,5.5206,5.5254,5.5248,5.5415,5.5436,5.5297,5.5298,5.5299,0,5.4783,5.4832,5.4867,5.4897,5.4916,5.4964,5.4992,5.4992,5.5022,5.506,5.5095,5.5142,5.5179,5.5256,5.5267,5.5308,5.53,5.5356,5.5306,5.5305,5.5297,5.5293,5.5296,5.5365,5.5366,5.5367,5.5368,0,5.4915,5.4917,5.496,5.5004,5.5039,5.5074,5.5106,5.513,5.5133,5.5167,5.5217,5.5246,5.5302,5.5347,5.5387,5.5401,5.5384,5.5384,5.5397,5.5398,5.5393,5.5393,5.5232,5.538,5.5379,5.5378,5.5377,5.5377,5.5009,5.505,5.5081,5.5128,5.5153,5.5183,5.5222,5.5234,5.5276,5.5322,5.5319,5.5373,5.54,5.5452,5.547,5.551,5.5491,5.5511,5.5515,5.5519,5.5523,5.5389,5.5518,5.5518,5.5517,5.5517,5.5517,0,5.5137,5.5156,5.52,5.5245,5.5282,5.5265,5.5299,5.533,5.5378,5.5406,5.5443,5.5498,5.5541,5.5556,5.5598,5.5627,5.562,5.5637,5.5633,5.5637,5.5539,5.5523,5.5642,5.5642,5.5642,5.5642,5.5642,5.5642,5.5208,5.5276,5.5281,5.536,5.5377,5.5431,5.5451,5.5478,5.5499,5.5562,5.5598,5.5609,5.563,5.5673,5.5711,5.5714,5.5728,5.5749,5.5748,5.5657,5.5644,5.5632,5.5616,5.5753,5.5753,5.5842,5.5842,5.5843]}]]